Time,TemperatureF,DewpointF,PressureIn,WindDirection,WindDirectionDegrees,WindSpeedMPH,WindSpeedGustMPH,Humidity,HourlyPrecipIn,Conditions,Clouds,dailyrainin,SoftwareType,DateUTC
2013-08-25 00:03:00,-999.0,-99.9,30.12,NE,34,4.0,5.0,-999,-99.99,,,-99.99,,2013-08-25 04:03:00,
2013-08-25 00:14:00,75.0,71.0,30.12,NE,34,4.0,5.0,88,-99.99,,,-99.99,,2013-08-25 04:14:00,
2013-08-25 00:25:00,74.0,71.0,30.13,NNE,23,4.0,4.0,89,-99.99,,,-99.99,,2013-08-25 04:25:00,
2013-08-25 00:34:00,74.0,71.0,30.13,NNE,23,4.0,4.0,89,-99.99,,,-99.99,,2013-08-25 04:34:00,
2013-08-25 00:54:00,74.0,71.0,30.13,NNE,17,4.0,5.0,90,-99.99,,,-99.99,,2013-08-25 04:54:00,
2013-08-25 01:23:00,75.0,72.0,30.13,NE,44,3.0,4.0,90,-99.99,,,-99.99,,2013-08-25 05:23:00,
2013-08-25 01:34:00,75.0,72.0,30.13,NE,44,3.0,4.0,90,-99.99,,,-99.99,,2013-08-25 05:34:00,
2013-08-25 01:52:00,74.0,71.0,30.12,NNE,27,4.0,5.0,90,-99.99,,,-99.99,,2013-08-25 05:52:00,
2013-08-25 02:03:00,74.0,71.0,30.12,NNE,27,4.0,5.0,90,-99.99,,,-99.99,,2013-08-25 06:03:00,
2013-08-25 02:22:00,75.0,72.0,30.12,NNE,27,4.0,6.0,90,-99.99,,,-99.99,,2013-08-25 06:22:00,
2013-08-25 02:43:00,75.0,72.0,30.11,NNE,32,4.0,6.0,90,-99.99,,,-99.99,,2013-08-25 06:43:00,
2013-08-25 02:52:00,76.0,73.0,30.11,NNE,25,4.0,6.0,90,-99.99,,,-99.99,,2013-08-25 06:52:00,
2013-08-25 03:01:00,76.0,73.0,30.11,NNE,25,4.0,6.0,90,-99.99,,,-99.99,,2013-08-25 07:01:00,
2013-08-25 03:22:00,76.0,73.0,30.10,SSW,200,5.0,7.0,90,-99.99,,,-99.99,,2013-08-25 07:22:00,
2013-08-25 03:32:00,76.0,73.0,30.10,SSW,200,5.0,7.0,90,-99.99,,,-99.99,,2013-08-25 07:32:00,
2013-08-25 03:52:00,76.0,73.0,30.10,NE,40,4.0,6.0,91,-99.99,,,-99.99,,2013-08-25 07:52:00,
2013-08-25 04:02:00,76.0,73.0,30.10,NE,40,4.0,6.0,91,-99.99,,,-99.99,,2013-08-25 08:02:00,
2013-08-25 04:21:00,76.0,73.0,30.09,NNE,32,4.0,6.0,91,-99.99,,,-99.99,,2013-08-25 08:21:00,
2013-08-25 04:32:00,76.0,73.0,30.09,NNE,32,4.0,6.0,91,-99.99,,,-99.99,,2013-08-25 08:32:00,
2013-08-25 04:52:00,76.0,73.0,30.10,NNE,15,4.0,7.0,91,-99.99,,,-99.99,,2013-08-25 08:52:00,
2013-08-25 05:02:00,76.0,73.0,30.10,NNE,15,4.0,7.0,91,-99.99,,,-99.99,,2013-08-25 09:02:00,
2013-08-25 05:55:00,75.0,73.0,30.12,ENE,71,2.0,3.0,91,-99.99,,,-99.99,,2013-08-25 09:55:00,
2013-08-25 06:03:00,75.0,73.0,30.12,ENE,71,2.0,3.0,91,-99.99,,,-99.99,,2013-08-25 10:03:00,
2013-08-25 06:53:00,75.0,73.0,30.14,NE,35,5.0,6.0,91,-99.99,,,-99.99,,2013-08-25 10:53:00,
2013-08-25 07:02:00,75.0,73.0,30.14,NE,35,5.0,6.0,91,-99.99,,,-99.99,,2013-08-25 11:02:00,
2013-08-25 07:22:00,75.0,73.0,30.14,NE,40,2.0,4.0,91,-99.99,,,-99.99,,2013-08-25 11:22:00,
2013-08-25 07:52:00,75.0,72.0,30.15,ENE,76,1.0,1.0,91,-99.99,,,-99.99,,2013-08-25 11:52:00,
2013-08-25 08:12:00,75.0,72.0,30.15,ESE,109,1.0,2.0,91,-99.99,,,-99.99,,2013-08-25 12:12:00,
2013-08-25 08:52:00,77.0,74.0,30.15,SW,219,3.0,5.0,90,-99.99,,,-99.99,,2013-08-25 12:52:00,
2013-08-25 09:22:00,79.0,74.0,30.16,ENE,65,4.0,9.0,85,-99.99,,,-99.99,,2013-08-25 13:22:00,
2013-08-25 09:42:00,79.0,74.0,30.16,NE,35,7.0,12.0,82,-99.99,,,-99.99,,2013-08-25 13:42:00,
2013-08-25 09:52:00,81.0,74.0,30.17,NE,34,7.0,10.0,78,-99.99,,,-99.99,,2013-08-25 13:52:00,
2013-08-25 10:02:00,81.0,74.0,30.17,NE,34,7.0,10.0,78,-99.99,,,-99.99,,2013-08-25 14:02:00,
2013-08-25 10:27:00,81.0,74.0,30.17,NE,39,8.0,12.0,78,-99.99,,,-99.99,,2013-08-25 14:27:00,
2013-08-25 10:32:00,81.0,74.0,30.17,NE,39,8.0,12.0,78,-99.99,,,-99.99,,2013-08-25 14:32:00,
2013-08-25 10:52:00,82.0,74.0,30.18,NE,38,8.0,12.0,76,-99.99,,,-99.99,,2013-08-25 14:52:00,
2013-08-25 11:01:00,82.0,74.0,30.18,NE,38,8.0,12.0,76,-99.99,,,-99.99,,2013-08-25 15:01:00,
2013-08-25 11:23:00,82.0,74.0,30.18,NNE,33,8.0,11.0,76,-99.99,,,-99.99,,2013-08-25 15:23:00,
2013-08-25 11:35:00,82.0,74.0,30.18,NNE,33,8.0,11.0,76,-99.99,,,-99.99,,2013-08-25 15:35:00,
2013-08-25 11:55:00,83.0,73.0,30.18,NE,54,7.0,12.0,71,-99.99,,,-99.99,,2013-08-25 15:55:00,
2013-08-25 12:05:00,83.0,73.0,30.18,NE,54,7.0,12.0,71,-99.99,,,-99.99,,2013-08-25 16:05:00,
2013-08-25 12:24:00,83.0,73.0,30.18,NE,48,6.0,10.0,71,-99.99,,,-99.99,,2013-08-25 16:24:00,
2013-08-25 12:44:00,83.0,73.0,30.18,NE,46,7.0,11.0,70,-99.99,,,-99.99,,2013-08-25 16:44:00,
2013-08-25 12:54:00,84.0,73.0,30.18,NE,49,7.0,10.0,69,-99.99,,,-99.99,,2013-08-25 16:54:00,
2013-08-25 13:23:00,84.0,73.0,30.17,NE,41,7.0,11.0,68,-99.99,,,-99.99,,2013-08-25 17:23:00,
2013-08-25 13:34:00,84.0,73.0,30.17,NE,41,7.0,11.0,68,-99.99,,,-99.99,,2013-08-25 17:34:00,
2013-08-25 13:53:00,79.0,72.0,30.17,SE,127,8.0,14.0,80,-99.99,,,-99.99,,2013-08-25 17:53:00,
2013-08-25 14:02:00,79.0,72.0,30.17,SE,127,8.0,14.0,80,-99.99,,,-99.99,,2013-08-25 18:02:00,
2013-08-25 14:22:00,78.0,73.0,30.16,SE,140,5.0,8.0,83,-99.99,,,-99.99,,2013-08-25 18:22:00,
2013-08-25 14:52:00,85.0,74.0,30.14,East,91,6.0,9.0,69,-99.99,,,-99.99,,2013-08-25 18:52:00,
2013-08-25 15:02:00,85.0,74.0,30.14,East,91,6.0,9.0,69,-99.99,,,-99.99,,2013-08-25 19:02:00,
2013-08-25 15:22:00,86.0,74.0,30.13,ENE,63,8.0,12.0,66,-99.99,,,-99.99,,2013-08-25 19:22:00,
2013-08-25 15:42:00,86.0,73.0,30.13,ENE,69,8.0,14.0,65,-99.99,,,-99.99,,2013-08-25 19:42:00,
2013-08-25 16:53:00,80.0,75.0,30.11,ENE,60,4.0,7.0,84,-99.99,,,-99.99,,2013-08-25 20:53:00,
2013-08-25 17:02:00,80.0,75.0,30.11,ENE,60,4.0,7.0,84,-99.99,,,-99.99,,2013-08-25 21:02:00,
2013-08-25 17:22:00,81.0,75.0,30.11,ENE,65,5.0,8.0,82,-99.99,,,-99.99,,2013-08-25 21:22:00,
2013-08-25 17:34:00,81.0,75.0,30.11,ENE,65,5.0,8.0,82,-99.99,,,-99.99,,2013-08-25 21:34:00,
2013-08-25 17:55:00,83.0,74.0,30.11,NE,43,8.0,12.0,74,-99.99,,,-99.99,,2013-08-25 21:55:00,
2013-08-25 18:03:00,83.0,74.0,30.11,NE,43,8.0,12.0,74,-99.99,,,-99.99,,2013-08-25 22:03:00,
2013-08-25 18:24:00,83.0,72.0,30.10,ENE,61,7.0,10.0,69,-99.99,,,-99.99,,2013-08-25 22:24:00,
2013-08-25 19:23:00,81.0,72.0,30.12,NE,56,6.0,9.0,72,-99.99,,,-99.99,,2013-08-25 23:23:00,
2013-08-25 19:34:00,81.0,72.0,30.12,NE,56,6.0,9.0,72,-99.99,,,-99.99,,2013-08-25 23:34:00,
2013-08-25 19:53:00,81.0,72.0,30.12,ENE,59,4.0,6.0,74,-99.99,,,-99.99,,2013-08-25 23:53:00,
2013-08-25 20:11:00,80.0,72.0,30.12,NE,53,4.0,7.0,75,-99.99,,,-99.99,,2013-08-26 00:11:00,
2013-08-25 20:52:00,79.0,72.0,30.13,NE,37,5.0,7.0,78,-99.99,,,-99.99,,2013-08-26 00:52:00,
2013-08-25 21:11:00,78.0,72.0,30.13,NE,46,3.0,5.0,80,-99.99,,,-99.99,,2013-08-26 01:11:00,
2013-08-25 21:52:00,77.0,72.0,30.16,NE,48,3.0,5.0,85,-99.99,,,-99.99,,2013-08-26 01:52:00,
2013-08-25 22:02:00,77.0,72.0,30.16,NE,48,3.0,5.0,85,-99.99,,,-99.99,,2013-08-26 02:02:00,
2013-08-25 22:22:00,77.0,72.0,30.16,NE,51,2.0,4.0,86,-99.99,,,-99.99,,2013-08-26 02:22:00,
2013-08-25 22:32:00,77.0,72.0,30.16,NE,51,2.0,4.0,86,-99.99,,,-99.99,,2013-08-26 02:32:00,
2013-08-25 23:22:00,76.0,72.0,30.17,NNE,31,4.0,5.0,87,-99.99,,,-99.99,,2013-08-26 03:22:00,
2013-08-25 23:44:00,76.0,72.0,30.17,NE,44,3.0,5.0,86,-99.99,,,-99.99,,2013-08-26 03:44:00,
2013-08-25 23:56:00,76.0,72.0,30.16,NE,53,3.0,5.0,86,-99.99,,,-99.99,,2013-08-26 03:56:00,